Location: C�an Torras
(41.5052°N, 1.9280°E)
Time: 01:10:57
(UTC+00:00)

Cosmos 1455 - Pass Details

Date: 20 January 2021
Orbit: 499 x 521 km, 82.5° (Epoch: 08 March)

Event Time Altitude Azimuth Distance (km) Brightness Sun altitude
Rises 18:57:25 0° 345° (NNW) 2,629 5.9 -23.0°
Reaches altitude 10° 18:59:37 10° 338° (NNW) 1,742 5.0 -23.4°
Maximum altitude 19:03:14 42° 267° (W) 747 3.4 -24.0°
Drops below altitude 10° 19:06:50 10° 196° (SSW) 1,739 5.1 -24.7°
Sets 19:09:02 0° 189° (S) 2,624 6.0 -25.1°
